Hourly Weather Kissonerga

Today, 31 October, Saturday

Time Temperature Precipitation Wind Pressure Humidity
00:00 +20°C° 0 mm 3 mps 761 mmHg 81%
01:00 +20°C° 0 mm 3 mps 761 mmHg 80%
02:00 +20°C° 0 mm 3 mps 761 mmHg 80%
03:00 +20°C° 0 mm 2 mps 760 mmHg 80%
04:00 +19°C° 0 mm 2 mps 760 mmHg 80%
05:00 +19°C° 0 mm 2 mps 760 mmHg 80%
06:00 +20°C° 0 mm 2 mps 760 mmHg 75%
07:00 +23°C° 0 mm 2 mps 760 mmHg 70%
08:00 +24°C° 0 mm 2 mps 760 mmHg 65%
09:00 +25°C° 0 mm 2 mps 760 mmHg 61%
10:00 +26°C° 0 mm 3 mps 760 mmHg 57%
11:00 +27°C° 0 mm 3 mps 760 mmHg 52%
12:00 +27°C° 0 mm 4 mps 760 mmHg 55%
13:00 +27°C° 0 mm 4 mps 760 mmHg 58%
14:00 +26°C° 0 mm 4 mps 759 mmHg 60%
15:00 +25°C° 0 mm 4 mps 759 mmHg 65%
16:00 +23°C° 0 mm 4 mps 759 mmHg 70%
17:00 +22°C° 0 mm 4 mps 759 mmHg 75%
18:00 +22°C° 0 mm 4 mps 759 mmHg 77%
19:00 +21°C° 0 mm 3 mps 759 mmHg 79%
20:00 +20°C° 0 mm 3 mps 759 mmHg 81%
21:00 +19°C° 0 mm 2 mps 759 mmHg 82%
22:00 +19°C° 0 mm 2 mps 759 mmHg 82%
23:00 +18°C° 0 mm 2 mps 760 mmHg 82%

Tomorrow, 1 November, Sunday

Time Temperature Precipitation Wind Pressure Humidity
00:00 +18°C° 0 mm 2 mps 759 mmHg 82%
01:00 +18°C° 0 mm 2 mps 759 mmHg 82%
02:00 +18°C° 0 mm 2 mps 759 mmHg 83%
03:00 +19°C° 0 mm 1 mps 759 mmHg 82%
04:00 +18°C° 0 mm 1 mps 759 mmHg 82%
05:00 +18°C° 0 mm 1 mps 759 mmHg 81%
06:00 +20°C° 0 mm 1 mps 760 mmHg 75%
07:00 +21°C° 0 mm 1 mps 760 mmHg 69%
08:00 +23°C° 0 mm 1 mps 760 mmHg 62%
09:00 +24°C° 0 mm 1 mps 760 mmHg 57%
10:00 +25°C° 0 mm 2 mps 761 mmHg 53%
11:00 +26°C° 0 mm 2 mps 761 mmHg 48%
12:00 +26°C° 0 mm 2 mps 761 mmHg 48%
13:00 +26°C° 0 mm 3 mps 760 mmHg 48%
14:00 +26°C° 0 mm 3 mps 760 mmHg 48%
15:00 +25°C° 0 mm 3 mps 760 mmHg 54%
16:00 +23°C° 0 mm 2 mps 760 mmHg 61%
17:00 +21°C° 0 mm 2 mps 760 mmHg 67%
18:00 +20°C° 0 mm 2 mps 760 mmHg 70%
19:00 +20°C° 0 mm 1 mps 760 mmHg 73%
20:00 +20°C° 0 mm 1 mps 760 mmHg 77%
21:00 +19°C° 0 mm 1 mps 760 mmHg 77%
22:00 +19°C° 0 mm 1 mps 760 mmHg 77%
23:00 +19°C° 0 mm 1 mps 761 mmHg 77%

Day after tomorrow, 2 November, Monday

Time Temperature Precipitation Wind Pressure Humidity
00:00 +18°C° 0 mm 1 mps 761 mmHg 76%
01:00 +18°C° 0 mm 1 mps 760 mmHg 76%
02:00 +18°C° 0 mm 1 mps 760 mmHg 76%
03:00 +18°C° 0 mm 1 mps 760 mmHg 75%
04:00 +18°C° 0 mm 1 mps 760 mmHg 74%
05:00 +18°C° 0 mm 1 mps 760 mmHg 73%
06:00 +19°C° 0 mm 1 mps 760 mmHg 66%
07:00 +21°C° 0 mm 1 mps 761 mmHg 59%
08:00 +23°C° 0 mm 1 mps 761 mmHg 52%
09:00 +24°C° 0 mm 1 mps 761 mmHg 50%
10:00 +25°C° 0 mm 1 mps 761 mmHg 48%
11:00 +26°C° 0 mm 2 mps 761 mmHg 46%
12:00 +26°C° 0 mm 2 mps 761 mmHg 49%
13:00 +25°C° 0 mm 3 mps 761 mmHg 51%
14:00 +25°C° 0 mm 3 mps 760 mmHg 54%
15:00 +24°C° 0 mm 3 mps 760 mmHg 59%
16:00 +23°C° 0 mm 2 mps 760 mmHg 64%
17:00 +21°C° 0 mm 2 mps 760 mmHg 69%
18:00 +21°C° 0 mm 1 mps 760 mmHg 72%
19:00 +20°C° 0 mm 1 mps 760 mmHg 76%
20:00 +20°C° 0 mm 1 mps 760 mmHg 80%
21:00 +19°C° 0 mm 1 mps 760 mmHg 81%
22:00 +19°C° 0 mm 1 mps 761 mmHg 81%
23:00 +19°C° 0 mm 1 mps 761 mmHg 82%

3 November, Tuesday

Time Temperature Precipitation Wind Pressure Humidity
00:00 +19°C° 0 mm 1 mps 760 mmHg 83%
01:00 +18°C° 0 mm 1 mps 760 mmHg 83%
02:00 +18°C° 0 mm 1 mps 760 mmHg 83%
03:00 +18°C° 0.2 mm 1 mps 760 mmHg 83%
04:00 +18°C° 0.2 mm 1 mps 760 mmHg 83%
05:00 +18°C° 0.2 mm 1 mps 760 mmHg 83%
06:00 +20°C° 0.5 mm 1 mps 760 mmHg 78%
07:00 +21°C° 0.5 mm 1 mps 760 mmHg 72%
08:00 +23°C° 0.5 mm 1 mps 760 mmHg 67%
09:00 +23°C° 0.2 mm 2 mps 760 mmHg 62%
10:00 +24°C° 0.2 mm 2 mps 760 mmHg 58%
11:00 +25°C° 0.2 mm 2 mps 760 mmHg 53%
12:00 +25°C° 0.4 mm 2 mps 760 mmHg 55%
13:00 +25°C° 0.4 mm 2 mps 760 mmHg 56%
14:00 +25°C° 0.4 mm 2 mps 759 mmHg 57%
15:00 +24°C° 0.4 mm 2 mps 759 mmHg 62%
16:00 +23°C° 0.4 mm 2 mps 759 mmHg 66%
17:00 +21°C° 0.4 mm 2 mps 759 mmHg 70%
18:00 +21°C° 0.4 mm 2 mps 759 mmHg 72%
19:00 +20°C° 0.4 mm 2 mps 759 mmHg 75%
20:00 +20°C° 0.4 mm 2 mps 759 mmHg 77%
21:00 +20°C° 0.3 mm 2 mps 759 mmHg 77%
22:00 +19°C° 0.3 mm 2 mps 760 mmHg 78%
23:00 +20°C° 0.3 mm 1 mps 760 mmHg 79%

4 November, Wednesday

Time Temperature Precipitation Wind Pressure Humidity
00:00 +19°C° 0.4 mm 2 mps 759 mmHg 79%
01:00 +19°C° 0.4 mm 2 mps 759 mmHg 78%
02:00 +19°C° 0.4 mm 2 mps 759 mmHg 78%
03:00 +19°C° 0.3 mm 2 mps 759 mmHg 77%
04:00 +18°C° 0.3 mm 2 mps 759 mmHg 76%
05:00 +18°C° 0.3 mm 2 mps 758 mmHg 75%
06:00 +19°C° 0.2 mm 2 mps 758 mmHg 70%
07:00 +20°C° 0.2 mm 2 mps 759 mmHg 65%
08:00 +21°C° 0.2 mm 3 mps 759 mmHg 60%
09:00 +22°C° 0.3 mm 3 mps 759 mmHg 56%
10:00 +24°C° 0.3 mm 3 mps 759 mmHg 53%
11:00 +25°C° 0.3 mm 4 mps 759 mmHg 49%
12:00 +25°C° 0.5 mm 4 mps 759 mmHg 50%
13:00 +25°C° 0.5 mm 4 mps 759 mmHg 50%
14:00 +26°C° 0.5 mm 5 mps 758 mmHg 50%
15:00 +25°C° 0.4 mm 4 mps 758 mmHg 54%
16:00 +23°C° 0.4 mm 4 mps 758 mmHg 58%
17:00 +22°C° 0.4 mm 4 mps 758 mmHg 63%
18:00 +21°C° 0.2 mm 3 mps 759 mmHg 63%
19:00 +21°C° 0.2 mm 3 mps 759 mmHg 64%
20:00 +20°C° 0.2 mm 2 mps 759 mmHg 64%
21:00 +20°C° 0.1 mm 3 mps 759 mmHg 64%
22:00 +20°C° 0.1 mm 3 mps 759 mmHg 63%
23:00 +20°C° 0.1 mm 3 mps 760 mmHg 63%

5 November, Thursday

Time Temperature Precipitation Wind Pressure Humidity
00:00 +19°C° 0 mm 3 mps 759 mmHg 64%
01:00 +19°C° 0 mm 3 mps 759 mmHg 64%
02:00 +19°C° 0 mm 3 mps 759 mmHg 64%
03:00 +19°C° 0 mm 3 mps 759 mmHg 65%
04:00 +19°C° 0 mm 3 mps 759 mmHg 66%
05:00 +19°C° 0 mm 3 mps 759 mmHg 67%
06:00 +20°C° 0 mm 3 mps 760 mmHg 63%
07:00 +21°C° 0 mm 3 mps 760 mmHg 59%
08:00 +21°C° 0 mm 2 mps 760 mmHg 54%
09:00 +24°C° 0 mm 3 mps 760 mmHg 50%
10:00 +25°C° 0 mm 3 mps 760 mmHg 46%
11:00 +26°C° 0 mm 3 mps 761 mmHg 43%
12:00 +26°C° 0 mm 4 mps 760 mmHg 43%
13:00 +26°C° 0 mm 4 mps 760 mmHg 42%
14:00 +27°C° 0 mm 5 mps 760 mmHg 42%
15:00 +26°C° 0 mm 5 mps 760 mmHg 46%
16:00 +25°C° 0 mm 5 mps 760 mmHg 49%
17:00 +23°C° 0 mm 5 mps 760 mmHg 52%
18:00 +22°C° 0 mm 4 mps 760 mmHg 54%
19:00 +22°C° 0 mm 4 mps 760 mmHg 55%
20:00 +21°C° 0 mm 4 mps 760 mmHg 57%
21:00 +21°C° 0 mm 3 mps 760 mmHg 58%
22:00 +20°C° 0 mm 3 mps 760 mmHg 59%
23:00 +20°C° 0 mm 2 mps 760 mmHg 60%
Show more